This is the latest recevied weather packets stored in our database for station/object K7MT-WX. If no packets are shown the sender has not sent any weather packets the latest 10 day(s).
| Time | Temp. | Humidity | Pressure | Rain* | Wind** | Luminosity | Snow |
|---|---|---|---|---|---|---|---|
| 1788161584 | 48° F | 66% | 763.1 mmHg | 0 in | - | - | - |
| 1788160684 | 48° F | 66% | 763 mmHg | 0 in | - | - | - |
| 1788159784 | 49° F | 64% | 762.9 mmHg | 0 in | - | - | - |
| 1788158884 | 49° F | 64% | 762.9 mmHg | 0 in | - | - | - |
| 1788157984 | 50° F | 64% | 762.9 mmHg | 0 in | - | - | - |
| 1788157084 | 50° F | 62% | 762.9 mmHg | 0 in | - | - | - |
| 1788156184 | 51° F | 59% | 763 mmHg | 0 in | - | - | - |
| 1788155284 | 51° F | 62% | 763 mmHg | 0 in | - | - | - |
| 1788154384 | 52° F | 61% | 762.9 mmHg | 0 in | - | - | - |
| 1788153484 | 54° F | 52% | 762.7 mmHg | 0 in | - | - | - |
| 1788152584 | 54° F | 53% | 762.5 mmHg | 0 in | - | - | - |
| 1788151684 | 55° F | 52% | 762.4 mmHg | 0 in | - | - | - |
| 1788150784 | 54° F | 52% | 762.3 mmHg | 0 in | - | - | - |
| 1788149884 | 54° F | 54% | 762.2 mmHg | 0 in | - | - | - |
| 1788148984 | 54° F | 55% | 762.1 mmHg | 0 in | - | - | - |
| 1788148084 | 54° F | 54% | 761.9 mmHg | 0 in | - | - | - |
| 1788147184 | 55° F | 52% | 761.7 mmHg | 0 in | - | - | - |
| 1788146284 | 55° F | 51% | 761.5 mmHg | 0 in | - | - | - |
| 1788145384 | 56° F | 50% | 761.3 mmHg | 0 in | - | - | - |
| 1788144484 | 58° F | 48% | 761 mmHg | 0 in | - | - | - |
| 1788143584 | 60° F | 43% | 760.8 mmHg | 0 in | - | - | - |
| 1788142684 | 62° F | 40% | 760.6 mmHg | 0 in | - | - | - |
| 1788141784 | 63° F | 38% | 760.6 mmHg | 0 in | - | - | - |
| 1788140884 | 65° F | 37% | 760.5 mmHg | 0 in | - | - | - |
| 1788139984 | 65° F | 36% | 760.5 mmHg | 0 in | - | - | - |
* Rain latest hour (hover to see other rain measurements)
** Current wind speed in m/s (hover to see current wind gust speed)